This is the latest recevied weather packets stored in our database for station/object OE5RBO. If no packets are shown the sender has not sent any weather packets the latest 10 day(s).
| Time | Temp. | Humidity | Pressure | Rain* | Wind** | Luminosity | Snow |
|---|---|---|---|---|---|---|---|
| 1777546460 | 13.33° C | 37% | 1026.1 hPa | 0.25 mm | - | - | - |
| 1777545859 | 13.89° C | 36% | 1026.6 hPa | 0.25 mm | - | - | - |
| 1777545259 | 13.33° C | 34% | 1026.7 hPa | 0.25 mm | - | - | - |
| 1777544658 | 12.22° C | 37% | 1026.8 hPa | 0.25 mm | - | - | - |
| 1777544059 | 12.22° C | 36% | 1027 hPa | 0.25 mm | - | - | - |
| 1777543457 | 12.78° C | 36% | 1027 hPa | 0.25 mm | - | - | - |
| 1777542857 | 11.67° C | 37% | 1027 hPa | 0.25 mm | - | - | - |
| 1777542258 | 12.22° C | 38% | 1027.1 hPa | 0.25 mm | - | - | - |
| 1777541657 | 11.67° C | 37% | 1027.1 hPa | 0.25 mm | - | - | - |
| 1777541056 | 11.67° C | 40% | 1026.8 hPa | 0.25 mm | - | - | - |
| 1777540455 | 11.67° C | 45% | 1027.2 hPa | 0.25 mm | - | - | - |
| 1777539856 | 10.56° C | 43% | 1027.2 hPa | 0.25 mm | - | - | - |
| 1777539256 | 10° C | 44% | 1027.1 hPa | 0.25 mm | - | - | - |
| 1777538654 | 10° C | 46% | 1027.2 hPa | 0.25 mm | - | - | - |
| 1777538055 | 9.44° C | 45% | 1027.1 hPa | 0.25 mm | - | - | - |
| 1777537455 | 10° C | 47% | 1027.2 hPa | 0.25 mm | - | - | - |
| 1777536853 | 11.11° C | 47% | 1027.2 hPa | 0.25 mm | - | - | - |
| 1777536254 | 9.44° C | 48% | 1027.2 hPa | 0.25 mm | - | - | - |
| 1777535654 | 10.56° C | 48% | 1027.2 hPa | 0.25 mm | - | - | - |
| 1777535053 | 8.89° C | 49% | 1027.3 hPa | 0.25 mm | - | - | - |
| 1777534452 | 9.44° C | 48% | 1026.8 hPa | 0.25 mm | - | - | - |
| 1777533852 | 8.33° C | 49% | 1027.3 hPa | 0.25 mm | - | - | - |
| 1777533251 | 8.89° C | 49% | 1027.1 hPa | 0.25 mm | - | - | - |
| 1777532652 | 9.44° C | 51% | 1027.1 hPa | 0.25 mm | - | - | - |
| 1777532050 | 9.44° C | 50% | 1027.1 hPa | 0.25 mm | - | - | - |
* Rain since midnight (hover to see other rain measurements)
** Current wind speed in m/s (hover to see current wind gust speed)